{"data":{"norad_id":59365,"epoch":"2026-09-21T22:36:05.510880Z","epoch_age_seconds":37638,"freshness":"FRESH","line1":"1 59365U 24060T   26264.94173045  .00001069  00000+0  48348-4 0  9999","line2":"2 59365  43.0006 231.8161 0000955 271.2350  88.8392 15.27580170140070","mean_motion":15.2758017,"eccentricity":9.55e-5,"inclination_deg":43.0006,"raan_deg":231.8161,"arg_perigee_deg":271.235,"mean_anomaly_deg":88.8392,"bstar":4.8348e-5,"rev_number":14007,"period_min":94.266738222977,"perigee_km":482.39334377498,"apogee_km":483.7038302221,"semimajor_km":6861.1855869985,"source":"CELESTRAK","updated_at":"2026-09-22T09:00:48.906416Z"}}